This is the latest recevied weather packets stored in our database for station/object KC8VEU. If no packets are shown the sender has not sent any weather packets the latest 10 day(s).
| Time | Temp. | Humidity | Pressure | Rain* | Wind** | Luminosity | Snow |
|---|---|---|---|---|---|---|---|
| 1778130617 | 2.78° C | 69% | 1002.7 hPa | 0 mm | - | - | - |
| 1778126416 | 3.33° C | 64% | 1002.8 hPa | 0 mm | - | - | - |
| 1778125817 | 3.33° C | 63% | 1002.9 hPa | 0 mm | - | - | - |
| 1778122517 | 3.33° C | 62% | 1003.1 hPa | 0 mm | - | - | - |
| 1778116517 | 3.33° C | 62% | 1003.1 hPa | 0 mm | - | - | - |
| 1778113537 | 3.33° C | 61% | 1003 hPa | 0 mm | - | - | - |
| 1778111117 | 3.33° C | 61% | 1002.9 hPa | 0 mm | - | - | - |
| 1778109917 | 3.89° C | 59% | 1002.9 hPa | 0 mm | - | - | - |
| 1778107517 | 3.89° C | 59% | 1003 hPa | 0 mm | - | - | - |
| 1778103917 | 3.33° C | 58% | 1003 hPa | 0 mm | - | - | - |
| 1778102717 | 3.89° C | 58% | 1003.1 hPa | 0 mm | - | - | - |
| 1778094317 | 3.33° C | 63% | 1003.3 hPa | 0 mm | - | - | - |
| 1778092517 | 3.33° C | 63% | 1003.3 hPa | 0 mm | - | - | - |
| 1778090737 | 3.89° C | 61% | 1003.3 hPa | 0 mm | - | - | - |
| 1778084717 | 3.33° C | 63% | 1003.4 hPa | 0 mm | - | - | - |
| 1778079917 | 2.22° C | 71% | 1003.1 hPa | 0 mm | - | - | - |
| 1778078717 | 2.22° C | 73% | 1002.9 hPa | 0 mm | - | - | - |
| 1778074517 | 1.67° C | 75% | 1002.5 hPa | 0 mm | - | - | - |
| 1778073317 | 1.67° C | 78% | 1002.2 hPa | 0 mm | - | - | - |
| 1778072716 | 1.11° C | 80% | 1002.2 hPa | 0 mm | - | - | - |
| 1778072137 | 1.11° C | 80% | 1002.1 hPa | 0 mm | - | - | - |
| 1778070317 | 1.11° C | 79% | 1001.9 hPa | 0 mm | - | - | - |
| 1778063716 | 0.56° C | 81% | 1001.1 hPa | 0 mm | - | - | - |
| 1778059536 | 1.11° C | 76% | 1001 hPa | 0 mm | - | - | - |
| 1778056817 | 1.11° C | 69% | 1001 hPa | 0 mm | - | - | - |
* Rain latest hour (hover to see other rain measurements)
** Current wind speed in m/s (hover to see current wind gust speed)